Corvallis, OR

1:42 AM PST on December 04, 2016 (GMT -0800)
Corvallis Municipal

Weather History for KCVO - August, 2013

Change the Weather History Date:

Monday, August 5, 2013

  Actual Average Record
Temperature  
Mean Temperature 73 °F -  
Max Temperature 91 °F 83 °F 98 °F (2005)
Min Temperature 55 °F 53 °F 44 °F (2002)
Cooling Degree Days 8    
Growing Degree Days 23 (Base 50)    
Moisture  
Dew Point 56 °F    
Average Humidity 61    
Maximum Humidity 94    
Minimum Humidity 31    
Precipitation  
Precipitation 0.00 in - - ()
Sea Level Pressure  
Sea Level Pressure 29.97 in    
Wind  
Wind Speed 10 mph (NW)    
Max Wind Speed 17 mph    
Max Gust Speed 18 mph    
Visibility 10 miles    
Events      
Averages and records for this station are not official NWS values.
T = Trace of Precipitation, MM = Missing Value Source: NWS Daily Summary

Daily Weather History Graph

Daily Weather History Graph

Search for Another Location

Airport or City:

Trip Planner

Search our weather history database for the weather conditions in past years. The results will help you decide how hot, cold, wet, or windy it might be!

Date:

Astronomy

Aug. 05, 2013 Rise Set
Actual Time 6:04 AM PDT 8:32 PM PDT
Civil Twilight 5:32 AM PDT 9:05 PM PDT
Nautical Twilight 4:51 AM PDT 9:46 PM PDT
Astronomical Twilight 4:04 AM PDT 10:32 PM PDT
Moon 5:05 AM PDT (8/5) 7:34 PM PDT (8/5)
Length of Visible Light 15h 33m
Length of Day
14h 27m
Waning Crescent, 1% of the Moon is Illuminated
Aug 5
Waning Crescent
Aug 6
New
Aug 14
First Quarter
Aug 20
Full
Aug 28
Last Quarter

Hourly Weather History & Observations

Time (PDT) Temp. Heat Index Dew Point Humidity Pressure Visibility Wind Dir Wind Speed Gust Speed Precip Events Conditions
12:15 AM 60.8 °F - 53.6 °F 77% 29.98 in 10.0 mi NW 15.0 mph - N/A   Clear
12:35 AM 60.8 °F - 53.6 °F 77% 29.98 in 10.0 mi NW 15.0 mph - N/A   Clear
12:55 AM 59.0 °F - 53.6 °F 82% 29.98 in 10.0 mi NW 12.7 mph - N/A   Clear
1:15 AM 59.0 °F - 53.6 °F 82% 29.98 in 10.0 mi NW 12.7 mph - N/A   Clear
1:35 AM 59.0 °F - 53.6 °F 82% 29.98 in 10.0 mi NW 11.5 mph - N/A   Clear
1:55 AM 59.0 °F - 53.6 °F 82% 29.98 in 10.0 mi NW 8.1 mph - N/A   Clear
2:15 AM 59.0 °F - 53.6 °F 82% 29.98 in 10.0 mi NW 9.2 mph - N/A   Clear
2:35 AM 59.0 °F - 53.6 °F 82% 29.98 in 10.0 mi NW 10.4 mph - N/A   Clear
2:55 AM 57.2 °F - 53.6 °F 88% 29.99 in 10.0 mi NW 6.9 mph - N/A   Clear
3:15 AM 57.2 °F - 53.6 °F 88% 29.99 in 10.0 mi NW 8.1 mph - N/A   Clear
3:35 AM 57.2 °F - 53.6 °F 88% 29.99 in 10.0 mi NW 6.9 mph - N/A   Clear
3:55 AM 57.2 °F - 53.6 °F 88% 29.99 in 10.0 mi NW 9.2 mph - N/A   Clear
4:15 AM 57.2 °F - 53.6 °F 88% 29.99 in 10.0 mi NW 9.2 mph - N/A   Clear
4:35 AM 57.2 °F - 53.6 °F 88% 29.99 in 10.0 mi NW 8.1 mph - N/A   Clear
4:55 AM 57.2 °F - 53.6 °F 88% 29.99 in 10.0 mi NW 6.9 mph - N/A   Clear
5:15 AM 57.2 °F - 53.6 °F 88% 29.99 in 10.0 mi WNW 5.8 mph - N/A   Clear
5:35 AM 57.2 °F - 53.6 °F 88% 30.00 in 10.0 mi NW 5.8 mph - N/A   Clear
5:55 AM 55.4 °F - 53.6 °F 94% 30.00 in 10.0 mi WNW 6.9 mph - N/A   Clear
6:15 AM 55.4 °F - 53.6 °F 94% 30.01 in 10.0 mi NW 6.9 mph - N/A   Clear
6:35 AM 55.4 °F - 53.6 °F 94% 30.01 in 10.0 mi NW 8.1 mph - N/A   Clear
6:55 AM 57.2 °F - 53.6 °F 88% 30.01 in 10.0 mi NW 9.2 mph - N/A   Clear
7:15 AM 57.2 °F - 53.6 °F 88% 30.02 in 10.0 mi NW 8.1 mph - N/A   Clear
7:35 AM 59.0 °F - 53.6 °F 82% 30.02 in 10.0 mi NW 9.2 mph - N/A   Clear
7:55 AM 60.8 °F - 53.6 °F 77% 30.02 in 10.0 mi NW 10.4 mph - N/A   Clear
8:15 AM 62.6 °F - 53.6 °F 72% 30.02 in 10.0 mi WNW 6.9 mph - N/A   Clear
8:35 AM 62.6 °F - 55.4 °F 77% 30.02 in 10.0 mi WNW 6.9 mph - N/A   Clear
8:55 AM 64.4 °F - 55.4 °F 73% 30.02 in 10.0 mi NNW 3.5 mph - N/A   Clear
9:15 AM 66.2 °F - 55.4 °F 68% 30.02 in 10.0 mi NW 4.6 mph - N/A   Clear
9:35 AM 68.0 °F - 55.4 °F 64% 30.03 in 10.0 mi Calm Calm - N/A   Clear
9:55 AM 69.8 °F - 57.2 °F 64% 30.02 in 10.0 mi Calm Calm - N/A   Clear
10:15 AM 73.4 °F - 57.2 °F 57% 30.02 in 8.0 mi NNE 4.6 mph - N/A   Clear
10:35 AM 75.2 °F - 57.2 °F 53% 30.02 in 10.0 mi Calm Calm - N/A   Clear
10:55 AM 75.2 °F - 57.2 °F 53% 30.02 in 10.0 mi Calm Calm - N/A   Clear
11:15 AM 78.8 °F - 57.2 °F 47% 30.02 in 10.0 mi North 3.5 mph - N/A   Clear
11:35 AM 80.6 °F 81.1 °F 59.0 °F 48% 30.01 in 10.0 mi North 4.6 mph - N/A   Clear
11:55 AM 80.6 °F 81.1 °F 59.0 °F 48% 30.01 in 10.0 mi Calm Calm - N/A   Clear
12:15 PM 82.4 °F 82.5 °F 59.0 °F 45% 30.00 in 10.0 mi NNE 5.8 mph - N/A   Clear
12:35 PM 84.2 °F 83.8 °F 59.0 °F 42% 30.00 in 10.0 mi North 3.5 mph - N/A   Clear
12:55 PM 84.2 °F 84.4 °F 60.8 °F 45% 30.00 in 10.0 mi North 3.5 mph - N/A   Clear
1:15 PM 84.2 °F 83.8 °F 59.0 °F 42% 29.99 in 10.0 mi NW 4.6 mph - N/A   Clear
1:35 PM 86.0 °F 85.4 °F 59.0 °F 40% 29.99 in 10.0 mi NNW 6.9 mph - N/A   Clear
1:55 PM 87.8 °F 87.1 °F 59.0 °F 38% 29.98 in 10.0 mi North 3.5 mph - N/A   Clear
2:15 PM 89.6 °F 88.9 °F 59.0 °F 36% 29.97 in 10.0 mi ENE 5.8 mph - N/A   Clear
2:35 PM 89.6 °F 89.5 °F 60.8 °F 38% 29.97 in 10.0 mi NW 8.1 mph - N/A   Clear
2:55 PM 89.6 °F 88.9 °F 59.0 °F 36% 29.96 in 10.0 mi WNW 8.1 mph - N/A   Clear
3:15 PM 89.6 °F 88.9 °F 59.0 °F 36% 29.95 in 10.0 mi WSW 8.1 mph - N/A   Clear
3:35 PM 89.6 °F 88.9 °F 59.0 °F 36% 29.95 in 10.0 mi NNE 8.1 mph - N/A   Clear
3:55 PM 89.6 °F 88.9 °F 59.0 °F 36% 29.94 in 10.0 mi WNW 4.6 mph - N/A   Clear
4:15 PM 89.6 °F 89.5 °F 60.8 °F 38% 29.93 in 10.0 mi NNW 10.4 mph - N/A   Clear
4:35 PM 91.4 °F 90.7 °F 59.0 °F 34% 29.93 in 10.0 mi WNW 8.1 mph - N/A   Clear
4:55 PM 89.6 °F 88.1 °F 57.2 °F 33% 29.92 in 10.0 mi NW 11.5 mph 17.3 mph N/A   Clear
5:15 PM 91.4 °F 89.9 °F 57.2 °F 31% 29.92 in 10.0 mi NW 11.5 mph - N/A   Clear
5:35 PM 89.6 °F 88.1 °F 57.2 °F 33% 29.92 in 10.0 mi NW 13.8 mph - N/A   Clear
5:55 PM 89.6 °F 88.1 °F 57.2 °F 33% 29.91 in 10.0 mi NW 12.7 mph - N/A   Clear
6:15 PM 87.8 °F 87.1 °F 59.0 °F 38% 29.91 in 10.0 mi NW 12.7 mph - N/A   Clear
6:35 PM 86.0 °F 84.9 °F 57.2 °F 37% 29.91 in 10.0 mi NW 13.8 mph - N/A   Clear
6:55 PM 84.2 °F 83.5 °F 57.2 °F 40% 29.91 in 10.0 mi WNW 11.5 mph - N/A   Clear
7:15 PM 82.4 °F 82.0 °F 57.2 °F 42% 29.91 in 10.0 mi WNW 11.5 mph - N/A   Clear
7:35 PM 80.6 °F 80.8 °F 57.2 °F 45% 29.91 in 10.0 mi WNW 13.8 mph - N/A   Clear
7:55 PM 78.8 °F - 57.2 °F 47% 29.92 in 10.0 mi WNW 12.7 mph - N/A   Clear
8:15 PM 75.2 °F - 55.4 °F 50% 29.92 in 10.0 mi WNW 12.7 mph - N/A   Clear
8:35 PM 73.4 °F - 55.4 °F 53% 29.92 in 10.0 mi NW 15.0 mph - N/A   Clear
8:55 PM 73.4 °F - 55.4 °F 53% 29.93 in 10.0 mi NW 15.0 mph - N/A   Clear
9:15 PM 71.6 °F - 55.4 °F 57% 29.93 in 10.0 mi WNW 13.8 mph - N/A   Clear
9:35 PM 69.8 °F - 53.6 °F 56% 29.93 in 10.0 mi WNW 13.8 mph 18.4 mph N/A   Clear
9:55 PM 69.8 °F - 53.6 °F 56% 29.93 in 10.0 mi WNW 17.3 mph - N/A   Clear
10:15 PM 68.0 °F - 51.8 °F 56% 29.94 in 10.0 mi NW 12.7 mph - N/A   Clear
10:35 PM 66.2 °F - 51.8 °F 60% 29.94 in 10.0 mi NW 15.0 mph - N/A   Clear
10:55 PM 66.2 °F - 51.8 °F 60% 29.94 in 10.0 mi NW 16.1 mph - N/A   Clear
11:15 PM 64.4 °F - 51.8 °F 64% 29.94 in 10.0 mi WNW 15.0 mph - N/A   Clear
11:35 PM 64.4 °F - 51.8 °F 64% 29.95 in 10.0 mi WNW 13.8 mph - N/A   Clear
11:55 PM 64.4 °F - 51.8 °F 64% 29.95 in 10.0 mi WNW 13.8 mph - N/A   Clear